Flag for Germany Weather past 2 weeks in Lutherstadt Eisleben, Saxony-Anhalt, Germany

Now
52 °F

Overcast.


Feels Like: 51 °F
Forecast: 46 / 59 °F
Wind: 5 mph from Southwest

Location: Leipzig-Schkeuditz

Current Time: Oct 25, 2014 at 9:15:25 PM

Latest Report: Oct 25, 2014 at 9:00 PM


Visibility: 10 mi

Pressure: 30.19 "Hg

Humidity: 84%

Dew point: 47 °F

Location of Lutherstadt EislebenLocation

Historic Weather in Lutherstadt Eisleben — Graph

°F

Lutherstadt Eisleben temperature yesterday

Maximum temperature yesterday: 57 °F (at 2:00 PM)
Minimum temperature yesterday: 44 °F (at 10:00 PM)
Average temperature yesterday: 49 °F

Past Weeks' High & Low Weather Summary

 TemperatureHumidityPressure
High72 °F (Oct 19, 3:00 PM)97% (Oct 12, 2:00 AM)30.25 "Hg (Oct 12, 2:00 AM)
Low42 °F (Oct 25, 12:00 AM)49% (Oct 15, 4:00 PM)29.47 "Hg (Oct 21, 9:00 PM)
Average55 °F86%29.93 "Hg
* Reported Oct 10 8:00 PM — Oct 25 8:00 PM, Lutherstadt Eisleben, Weather by CustomWeather, © 2014

Note: Actual official high and low records may vary slightly from our data, if they occured in-between our weather recording intervals... More about our weather records

Advertising

Lutherstadt Eisleben weather history for previous 24 hours

 ConditionsComfort  
Time TempWeatherWind HumidityBarometerVisibility
8:00 PM
Oct 25
52 °FOvercast.5 mph83%30.18 "Hg11 mi
7:00 PM53 °FOvercast.3 mph79%30.16 "Hg12 mi
6:00 PM54 °FOvercast.3 mph76%30.14 "Hg19 mi
5:00 PM54 °FOvercast.5 mph74%30.14 "Hg19 mi
4:00 PM55 °FOvercast.5 mph72%30.13 "Hg16 mi
3:00 PM55 °FOvercast.3 mph72%30.12 "Hg16 mi
2:00 PM54 °FOvercast.6 mph73%30.12 "Hg16 mi
1:00 PM54 °FOvercast.5 mph73%30.12 "Hg12 mi
12:00 PM52 °FOvercast.5 mph81%30.13 "Hg12 mi
11:00 AM50 °FOvercast.5 mph83%30.13 "Hg11 mi
10:00 AM47 °FOvercast.6 mph88%30.13 "Hg11 mi
9:00 AM45 °FOvercast.5 mph93%30.13 "Hg9 mi
8:00 AM44 °FOvercast.5 mph93%30.11 "Hg9 mi
7:00 AM43 °FPassing clouds.3 mph94%30.12 "Hg12 mi
6:00 AM44 °FPassing clouds.3 mph94%30.13 "Hg9 mi
4:00 AM43 °FPassing clouds.5 mph97%30.14 "Hg12 mi
3:00 AM43 °FPassing clouds.5 mph97%30.15 "Hg12 mi
2:00 AM43 °FPassing clouds.5 mph97%30.15 "Hg12 mi
1:00 AM43 °FPassing clouds.5 mph97%30.16 "Hg12 mi
12:00 AM42 °FPassing clouds.3 mph96%30.17 "Hg7 mi
11:00 PM
Oct 24
44 °FPassing clouds.5 mph95%30.17 "Hg6 mi
10:00 PM44 °FPassing clouds.5 mph95%30.17 "Hg6 mi
9:00 PM45 °FPassing clouds.5 mph94%30.17 "Hg6 mi
Weather by CustomWeather, © 2014

See weather overviewHow to use our weather pages